[[{"header":{"parameterUnit":"m.s-1","parameterCategory":2,"la1":30.2992,"la2":30.254,"lo1":-89.0895,"lo2":-89.0443,"dy":0.0025,"dx":0.0025,"nx":19,"ny":19,"refTime":"2026-05-06T21:00:00:Z","depth":"0","parameterNumber":2,"parameterNumberName":"U-component_of_CURRENTS"},"data":[0,0,0,-0.158,-0.1578,-0.1485,-0.1484,-0.1351,-0.135,0,0,0,0,0,0,0,0,0,0,0,-0.1603,-0.1602,-0.158,-0.1578,-0.1485,-0.1484,-0.1352,-0.135,0,0,0,0,0,0,0,0,0,0,0,-0.1603,-0.1602,-0.1602,-0.1578,-0.1485,-0.1484,-0.1352,-0.1422,0,0,0,0,0,0,0,0,0,0,-0.1513,-0.1543,-0.1603,-0.1602,-0.1577,-0.1485,-0.1484,-0.1426,-0.1418,-0.1394,0,-0.138,0,-0.1371,-0.1342,-0.1342,0,0,0,-0.1564,-0.155,-0.1527,-0.1602,-0.1577,-0.1485,-0.1523,-0.1421,-0.1413,-0.1384,-0.1378,-0.1373,-0.1369,-0.1342,-0.1341,-0.1244,-0.1244,0,0,-0.1569,-0.1582,-0.1533,-0.1521,-0.1552,-0.1526,-0.152,-0.1416,-0.1405,-0.1378,-0.1371,-0.1367,-0.1341,-0.134,-0.1244,-0.1244,0,0,0,-0.1593,-0.1585,-0.1565,-0.1526,-0.1516,-0.1524,-0.1517,-0.141,-0.1403,-0.1369,-0.1365,-0.134,-0.1339,-0.1245,-0.1244,-0.1313,0,0,0,-0.1596,-0.16,-0.1567,-0.1573,-0.1518,-0.1464,-0.1513,-0.141,-0.1399,-0.1366,-0.134,-0.1338,-0.1245,-0.1244,-0.1311,-0.1232,0,0,0,-0.1607,-0.1602,-0.1592,-0.1574,-0.1541,-0.1466,-0.1453,-0.1407,-0.1397,-0.1342,-0.1337,-0.1245,-0.1244,-0.131,-0.1233,-0.0808,0,0,0,-0.1622,-0.1623,-0.1592,-0.1595,-0.1542,-0.1506,-0.1453,-0.1432,-0.1395,-0.134,-0.1245,-0.1244,-0.131,-0.1233,-0.0816,-0.0313,-0.0238,0,0,-0.164,-0.1625,-0.1632,-0.1602,-0.159,-0.1517,-0.1489,-0.1432,-0.1373,-0.1276,-0.1273,-0.1312,-0.1233,-0.081,-0.0291,-0.0214,0,0,0,-0.1649,-0.1641,-0.1635,-0.1616,-0.1584,-0.1521,-0.1468,-0.1428,-0.1354,-0.1349,-0.1284,-0.1228,-0.0958,-0.0674,-0.0615,-0.0515,-0.1242,-0.1242,-0.1242,-0.1652,-0.1651,-0.1655,-0.1633,-0.1593,-0.1529,-0.147,-0.139,-0.1374,-0.1353,-0.127,-0.0971,-0.0685,-0.063,-0.0545,-0.1309,-0.1309,-0.1309,-0.1309,-0.168,-0.1675,-0.1658,-0.1665,-0.1603,-0.1555,-0.1435,-0.1415,-0.1143,-0.1282,-0.1014,-0.0749,-0.0566,-0.0498,-0.1313,-0.1313,-0.1312,-0.1312,-0.1311,-0.1684,-0.1677,-0.1705,-0.1659,-0.1583,-0.1502,-0.1187,-0.1181,-0.1084,-0.0939,-0.0279,-0.0273,-0.0189,-0.0681,-0.0679,-0.0677,-0.0675,-0.0673,-0.0672,-0.1667,-0.169,-0.1579,-0.1586,-0.1434,-0.1221,-0.0951,-0.0658,-0.0228,-0.0168,-0.016,-0.0039,-0.0769,-0.0767,-0.0639,-0.0645,-0.0649,-0.0652,-0.0655,-0.1547,-0.1552,-0.133,-0.1182,-0.0823,-0.0441,-0.0283,0.041,0.0725,0.1037,0.0896,0.0334,0.0513,0.0468,0.0506,0.0959,0.0959,0.0959,0.0959,-0.1379,-0.1411,-0.0917,-0.0523,-0.0134,0.0043,0.081,0.1171,0.1532,0.1702,0.1596,0.1416,0.1347,0.1556,0.1486,0.1537,0.2241,0.2241,0.2242,-0.1145,-0.1023,-0.0544,-0.0216,0.0248,0.0652,0.1216,0.1535,0.2042,0.2275,0.1634,0.158,0.126,0.1144,0.1406,0.13,0.1358,0,0]},{"header":{"parameterUnit":"m.s-1","parameterCategory":2,"la1":30.2992,"la2":30.254,"lo1":-89.0895,"lo2":-89.0443,"dy":0.0025,"dx":0.0025,"nx":19,"ny":19,"refTime":"2026-05-06T21:00:00:Z","depth":"0","parameterNumber":3,"parameterNumberName":"V-component_of_CURRENTS"},"data":[0,0,0,-0.0707,-0.0706,-0.0629,-0.0629,-0.0554,-0.0554,0,0,0,0,0,0,0,0,0,0,0,-0.0733,-0.0733,-0.0707,-0.0706,-0.0629,-0.0629,-0.0555,-0.0554,0,0,0,0,0,0,0,0,0,0,0,-0.0733,-0.0733,-0.0732,-0.0705,-0.0629,-0.0629,-0.0555,-0.0606,0,0,0,0,0,0,0,0,0,0,-0.0676,-0.0701,-0.0733,-0.0732,-0.0705,-0.0629,-0.0629,-0.0608,-0.0602,-0.0597,0,-0.0585,0,-0.057,-0.055,-0.055,0,0,0,-0.0701,-0.0706,-0.0683,-0.0732,-0.0704,-0.0629,-0.0662,-0.0604,-0.0599,-0.0591,-0.0584,-0.0581,-0.0569,-0.055,-0.0549,-0.0572,-0.0573,0,0,-0.0705,-0.072,-0.0687,-0.0679,-0.0684,-0.0665,-0.066,-0.0601,-0.0596,-0.0584,-0.0579,-0.0568,-0.0549,-0.0549,-0.0572,-0.0573,0,0,0,-0.072,-0.0723,-0.0702,-0.0683,-0.0668,-0.0663,-0.0657,-0.0599,-0.0591,-0.0578,-0.0567,-0.0549,-0.0548,-0.0571,-0.0572,-0.0626,0,0,0,-0.0723,-0.0732,-0.0704,-0.0712,-0.0669,-0.063,-0.0657,-0.0595,-0.0588,-0.0567,-0.0549,-0.0547,-0.057,-0.0572,-0.0623,-0.0455,0,0,0,-0.0737,-0.0734,-0.0725,-0.0713,-0.0682,-0.063,-0.0619,-0.0593,-0.0581,-0.055,-0.0547,-0.057,-0.0571,-0.062,-0.0457,-0.0148,0,0,0,-0.0755,-0.0795,-0.0725,-0.0763,-0.0682,-0.069,-0.0619,-0.0615,-0.0598,-0.0548,-0.057,-0.0572,-0.0619,-0.0458,-0.0154,0.027,0.0332,0,0,-0.0831,-0.0804,-0.0829,-0.0766,-0.0796,-0.07,-0.0731,-0.0671,-0.0621,-0.0588,-0.0588,-0.0624,-0.0457,-0.0149,0.0171,0.0239,0,0,0,-0.0872,-0.0877,-0.088,-0.0865,-0.0842,-0.0763,-0.074,-0.0715,-0.0674,-0.0616,-0.0643,-0.0531,-0.0335,-0.0097,-0.0047,-0.0037,-0.058,-0.0579,-0.0579,-0.0971,-0.0951,-0.0956,-0.0918,-0.0895,-0.0833,-0.0762,-0.0709,-0.0744,-0.0742,-0.0601,-0.0413,-0.0179,-0.0131,-0.0138,-0.0727,-0.0727,-0.0727,-0.0728,-0.1028,-0.0988,-0.094,-0.0932,-0.0847,-0.0828,-0.073,-0.0725,-0.0527,-0.0664,-0.0474,-0.0198,-0.0075,-0.0103,-0.0731,-0.0731,-0.073,-0.073,-0.073,-0.104,-0.0999,-0.0992,-0.0881,-0.077,-0.0696,-0.0376,-0.0397,-0.0401,-0.0281,0.0196,0.0201,0.0232,-0.0146,-0.0144,-0.0142,-0.014,-0.0139,-0.0137,-0.1005,-0.0992,-0.0836,-0.0762,-0.059,-0.0341,-0.0095,0.0128,0.0382,0.0359,0.0362,0.0322,-0.0227,-0.0188,-0.0107,-0.0113,-0.0116,-0.0119,-0.0121,-0.0884,-0.0855,-0.059,-0.0413,-0.0022,0.038,0.0514,0.106,0.124,0.1454,0.1129,0.0739,0.0902,0.0861,0.093,0.1299,0.1299,0.1299,0.1299,-0.0718,-0.0721,-0.0206,0.0184,0.0578,0.0801,0.1488,0.179,0.1897,0.1902,0.1701,0.1507,0.1449,0.1625,0.1568,0.1643,0.2183,0.2183,0.2184,-0.0481,-0.035,0.0112,0.045,0.0907,0.1312,0.1908,0.2267,0.2334,0.2195,0.1628,0.1591,0.1249,0.1159,0.1372,0.1291,0.139,0,0]}],[{"header":{"parameterUnit":"m.s-1","parameterCategory":2,"la1":30.2992,"la2":30.254,"lo1":-89.0895,"lo2":-89.0443,"dy":0.0025,"dx":0.0025,"nx":19,"ny":19,"refTime":"2026-05-06T21:00:00:Z","depth":"2","parameterNumber":2,"parameterNumberName":"U-component_of_CURRENTS"},"data":[0,0,0,-0.0783,-0.0783,-0.079,-0.079,-0.0792,-0.0792,0,0,0,0,0,0,0,0,0,0,0,-0.0779,-0.0779,-0.0783,-0.0783,-0.079,-0.079,-0.0792,-0.0792,0,0,0,0,0,0,0,0,0,0,0,-0.078,-0.0779,-0.0779,-0.0783,-0.079,-0.079,-0.0792,-0.079,0,0,0,0,0,0,0,0,0,0,-0.0785,-0.0783,-0.0779,-0.0779,-0.0783,-0.079,-0.079,-0.079,-0.079,-0.0785,0,-0.0782,0,-0.0784,-0.0792,-0.0792,0,0,0,-0.0789,-0.0783,-0.0781,-0.0779,-0.0783,-0.079,-0.0788,-0.079,-0.079,-0.0786,-0.0782,-0.0782,-0.0785,-0.0792,-0.0792,-0.0807,-0.0807,0,0,-0.0788,-0.0785,-0.0781,-0.0781,-0.0778,-0.0788,-0.0789,-0.0791,-0.079,-0.0782,-0.0782,-0.0785,-0.0792,-0.0792,-0.0807,-0.0807,0,0,0,-0.0783,-0.0785,-0.0784,-0.0781,-0.0781,-0.0788,-0.0789,-0.079,-0.0788,-0.0782,-0.0785,-0.0792,-0.0792,-0.0806,-0.0807,-0.0886,0,0,0,-0.0783,-0.0782,-0.0783,-0.0783,-0.0781,-0.0787,-0.0788,-0.0788,-0.0788,-0.0785,-0.0792,-0.0791,-0.0806,-0.0807,-0.0883,-0.0977,0,0,0,-0.078,-0.0782,-0.078,-0.0782,-0.0783,-0.0787,-0.0786,-0.0788,-0.0789,-0.0792,-0.0791,-0.0806,-0.0806,-0.0881,-0.0971,-0.0814,0,0,0,-0.0782,-0.0783,-0.078,-0.0796,-0.0782,-0.0808,-0.0786,-0.0803,-0.0808,-0.0792,-0.0806,-0.0807,-0.088,-0.0967,-0.0813,-0.0653,-0.0643,0,0,-0.0787,-0.0784,-0.0798,-0.0795,-0.0838,-0.0808,-0.0847,-0.084,-0.0813,-0.0805,-0.0806,-0.0884,-0.0971,-0.0814,-0.0685,-0.0672,0,0,0,-0.0804,-0.0822,-0.0832,-0.0859,-0.0863,-0.0911,-0.0873,-0.086,-0.0864,-0.0817,-0.0873,-0.0926,-0.0822,-0.0725,-0.0716,-0.0809,-0.0809,-0.0809,-0.0809,-0.0806,-0.0839,-0.0893,-0.0936,-0.0962,-0.0969,-0.0996,-0.0974,-0.0902,-0.0911,-0.0979,-0.0916,-0.0818,-0.0808,-0.0934,-0.0934,-0.0934,-0.0935,-0.0935,-0.0856,-0.089,-0.0974,-0.1045,-0.1095,-0.114,-0.1141,-0.1102,-0.1037,-0.1035,-0.0924,-0.0806,-0.0802,-0.0941,-0.094,-0.0939,-0.0938,-0.0938,-0.0937,-0.0866,-0.0885,-0.096,-0.1066,-0.1197,-0.1245,-0.1198,-0.1197,-0.1143,-0.1113,-0.0808,-0.0804,-0.0918,-0.0957,-0.0957,-0.0956,-0.0956,-0.0956,-0.0956,-0.0808,-0.0885,-0.0919,-0.1075,-0.1136,-0.1191,-0.1189,-0.1072,-0.0933,-0.0909,-0.0903,-0.0921,-0.092,-0.0915,-0.0952,-0.0953,-0.0953,-0.0954,-0.0954,-0.0745,-0.0752,-0.0795,-0.084,-0.096,-0.0925,-0.0931,-0.0721,-0.0604,-0.0513,-0.0717,-0.0724,-0.0655,-0.0659,-0.0646,-0.061,-0.061,-0.061,-0.061,-0.0639,-0.0669,-0.0644,-0.0666,-0.0705,-0.0774,-0.0492,-0.0355,-0.0362,-0.0411,-0.042,-0.0417,-0.0434,-0.0353,-0.0365,-0.0345,-0.0231,-0.0231,-0.0231,-0.0539,-0.0551,-0.0496,-0.0558,-0.0618,-0.0566,-0.0341,-0.0062,-0.0031,-0.0222,-0.042,-0.0572,-0.0593,-0.061,-0.0504,-0.0516,-0.0493,0,0]},{"header":{"parameterUnit":"m.s-1","parameterCategory":2,"la1":30.2992,"la2":30.254,"lo1":-89.0895,"lo2":-89.0443,"dy":0.0025,"dx":0.0025,"nx":19,"ny":19,"refTime":"2026-05-06T21:00:00:Z","depth":"2","parameterNumber":3,"parameterNumberName":"V-component_of_CURRENTS"},"data":[0,0,0,-0.0337,-0.0336,-0.0294,-0.0294,-0.0227,-0.0227,0,0,0,0,0,0,0,0,0,0,0,-0.0355,-0.0355,-0.0337,-0.0336,-0.0294,-0.0294,-0.0227,-0.0227,0,0,0,0,0,0,0,0,0,0,0,-0.0355,-0.0355,-0.0355,-0.0336,-0.0294,-0.0294,-0.0227,-0.0261,0,0,0,0,0,0,0,0,0,0,-0.0303,-0.0325,-0.0355,-0.0355,-0.0336,-0.0294,-0.0294,-0.0263,-0.0259,-0.0244,0,-0.0243,0,-0.0233,-0.0222,-0.0222,0,0,0,-0.0331,-0.0329,-0.0315,-0.0355,-0.0335,-0.0295,-0.0312,-0.0261,-0.0256,-0.0238,-0.0242,-0.024,-0.0232,-0.0222,-0.0221,-0.0177,-0.0177,0,0,-0.0333,-0.0346,-0.0319,-0.0313,-0.0332,-0.0313,-0.031,-0.0258,-0.0258,-0.0242,-0.0238,-0.0231,-0.0221,-0.0221,-0.0177,-0.0177,0,0,0,-0.0343,-0.0348,-0.0336,-0.0316,-0.0309,-0.0312,-0.0309,-0.026,-0.0256,-0.0237,-0.023,-0.0221,-0.022,-0.0177,-0.0177,-0.0245,0,0,0,-0.0344,-0.0354,-0.0338,-0.0345,-0.0311,-0.0286,-0.0312,-0.0259,-0.0253,-0.0231,-0.0221,-0.022,-0.0177,-0.0177,-0.0243,-0.023,0,0,0,-0.0356,-0.0355,-0.0352,-0.0346,-0.0329,-0.0287,-0.028,-0.0258,-0.0249,-0.0222,-0.0219,-0.0177,-0.0177,-0.0242,-0.0228,-0.0149,0,0,0,-0.0367,-0.0372,-0.0353,-0.0365,-0.033,-0.0315,-0.028,-0.0261,-0.0242,-0.0221,-0.0177,-0.0177,-0.0241,-0.0227,-0.0149,-0.0127,-0.0122,0,0,-0.038,-0.0374,-0.0384,-0.0366,-0.0371,-0.032,-0.0315,-0.0272,-0.0235,-0.0192,-0.0191,-0.0244,-0.0228,-0.0149,-0.0126,-0.0122,0,0,0,-0.0394,-0.041,-0.0406,-0.0408,-0.0379,-0.0349,-0.0307,-0.0282,-0.0248,-0.0223,-0.0224,-0.0211,-0.0159,-0.0146,-0.0143,-0.0177,-0.0177,-0.0177,-0.0177,-0.0432,-0.0432,-0.0451,-0.0446,-0.0425,-0.0369,-0.0342,-0.0295,-0.0272,-0.0264,-0.0255,-0.022,-0.0212,-0.0208,-0.0262,-0.0262,-0.0263,-0.0263,-0.0263,-0.0483,-0.051,-0.0492,-0.0513,-0.0467,-0.0448,-0.037,-0.0347,-0.0273,-0.0283,-0.023,-0.0205,-0.0208,-0.0268,-0.0267,-0.0266,-0.0266,-0.0265,-0.0265,-0.0528,-0.0541,-0.0551,-0.0574,-0.0533,-0.0476,-0.0381,-0.034,-0.0298,-0.0273,-0.0172,-0.0171,-0.0215,-0.0226,-0.0226,-0.0225,-0.0225,-0.0225,-0.0224,-0.0574,-0.0581,-0.0627,-0.0626,-0.0603,-0.0519,-0.037,-0.029,-0.0205,-0.0194,-0.0193,-0.0205,-0.0206,-0.0209,-0.0219,-0.022,-0.022,-0.0221,-0.0221,-0.0664,-0.0667,-0.0722,-0.0723,-0.0643,-0.0514,-0.036,-0.0168,-0.0077,-0.0034,-0.0128,-0.0132,-0.0078,-0.008,-0.0078,-0.0052,-0.0052,-0.0052,-0.0052,-0.0731,-0.0739,-0.0791,-0.0766,-0.0682,-0.0504,-0.031,-0.0208,-0.0131,-0.0164,-0.016,-0.0224,-0.0227,-0.0184,-0.0184,-0.0185,-0.0187,-0.0188,-0.0188,-0.0809,-0.0804,-0.0839,-0.0805,-0.0687,-0.049,-0.0332,-0.0219,-0.0182,-0.0201,-0.0262,-0.0046,-0.0131,-0.0139,-0.0064,-0.0069,-0.0065,0,0]}],[{"header":{"parameterUnit":"m.s-1","parameterCategory":2,"la1":30.2992,"la2":30.254,"lo1":-89.0895,"lo2":-89.0443,"dy":0.0025,"dx":0.0025,"nx":19,"ny":19,"refTime":"2026-05-06T21:00:00:Z","depth":"4","parameterNumber":2,"parameterNumberName":"U-component_of_CURRENTS"},"data":[0,0,0,-0.0612,-0.0613,-0.0654,-0.0655,-0.0681,-0.0681,0,0,0,0,0,0,0,0,0,0,0,-0.0596,-0.0596,-0.0612,-0.0613,-0.0654,-0.0655,-0.0681,-0.0681,0,0,0,0,0,0,0,0,0,0,0,-0.0596,-0.0596,-0.0597,-0.0613,-0.0654,-0.0655,-0.0681,-0.0656,0,0,0,0,0,0,0,0,0,0,-0.0619,-0.061,-0.0596,-0.0597,-0.0613,-0.0654,-0.0655,-0.0656,-0.0658,-0.0653,0,-0.0659,0,-0.0669,-0.0682,-0.0682,0,0,0,-0.0615,-0.0609,-0.0617,-0.0597,-0.0613,-0.0654,-0.0636,-0.0657,-0.066,-0.0656,-0.0659,-0.066,-0.0669,-0.0682,-0.0682,-0.0677,-0.0677,0,0,-0.0613,-0.0607,-0.0615,-0.0619,-0.0623,-0.0635,-0.0638,-0.0659,-0.0662,-0.0659,-0.0661,-0.067,-0.0682,-0.0682,-0.0677,-0.0677,0,0,0,-0.0604,-0.0605,-0.0614,-0.0617,-0.0627,-0.0636,-0.0639,-0.0661,-0.0663,-0.0661,-0.067,-0.0682,-0.0682,-0.0678,-0.0677,-0.0655,0,0,0,-0.0603,-0.06,-0.0613,-0.061,-0.0626,-0.0649,-0.064,-0.0662,-0.0665,-0.067,-0.0682,-0.0682,-0.0678,-0.0677,-0.0656,-0.0665,0,0,0,-0.0595,-0.0599,-0.0603,-0.0609,-0.0626,-0.0649,-0.0653,-0.0663,-0.067,-0.0682,-0.0682,-0.0678,-0.0678,-0.0657,-0.0666,-0.0665,0,0,0,-0.0588,-0.0591,-0.0603,-0.0608,-0.0626,-0.0637,-0.0653,-0.0672,-0.0683,-0.0682,-0.0678,-0.0677,-0.0657,-0.0667,-0.0666,-0.0552,0,0,0,-0.0586,-0.059,-0.0592,-0.0604,-0.0601,-0.0632,-0.063,-0.0657,-0.0673,-0.067,-0.067,-0.0655,-0.0666,-0.0666,-0.0533,0,0,0,0,-0.0588,-0.0585,-0.0588,-0.059,-0.0603,-0.0616,-0.0636,-0.0647,-0.0658,-0.0678,-0.0655,-0.0663,-0.0663,-0.0597,-0.0676,-0.0676,-0.0676,-0.0676,-0.0676,-0.0569,-0.0571,-0.0575,-0.0577,-0.0584,-0.0602,-0.0613,-0.0629,-0.0638,-0.0642,-0.0643,-0.0628,-0.0556,-0.0631,-0.0631,-0.0631,-0.0631,-0.0631,-0.0631,-0.0567,-0.0567,-0.0572,-0.058,-0.0584,-0.0589,-0.0599,-0.0607,-0.061,-0.0623,-0.0624,-0.0576,-0.0629,-0.0629,-0.0629,-0.063,-0.063,-0.063,-0.063,-0.0569,-0.0565,-0.0581,-0.0578,-0.0587,-0.0594,-0.0583,-0.0601,-0.0611,-0.0605,-0.0546,-0.0622,-0.0627,-0.0607,-0.0608,-0.0608,-0.0608,-0.0608,-0.0608,-0.056,-0.057,-0.0556,-0.0571,-0.0564,-0.0568,-0.0581,-0.0566,-0.0588,-0.0524,-0.0611,-0.0621,-0.0621,-0.0626,-0.0608,-0.0608,-0.0608,-0.0608,-0.0608,-0.0517,-0.0524,-0.0502,-0.0493,-0.0476,-0.0481,-0.052,-0.0481,-0.0463,-0.0432,-0.0474,-0.0481,-0.0485,-0.049,-0.049,-0.0431,-0.0429,-0.0428,0,-0.0465,-0.0475,-0.0415,-0.0384,-0.0357,-0.0408,-0.0344,-0.0351,-0.0376,-0.0358,-0.0474,-0.0524,-0.0527,-0.0535,-0.0536,-0.0537,0,0,0,-0.0394,-0.0398,-0.0331,-0.0324,-0.029,-0.0285,-0.0321,-0.0288,-0.0383,-0.0322,-0.039,-0.04,-0.0516,-0.0609,-0.0632,-0.0633,-0.0642,0,0]},{"header":{"parameterUnit":"m.s-1","parameterCategory":2,"la1":30.2992,"la2":30.254,"lo1":-89.0895,"lo2":-89.0443,"dy":0.0025,"dx":0.0025,"nx":19,"ny":19,"refTime":"2026-05-06T21:00:00:Z","depth":"4","parameterNumber":3,"parameterNumberName":"V-component_of_CURRENTS"},"data":[0,0,0,-0.0198,-0.0198,-0.019,-0.019,-0.0147,-0.0146,0,0,0,0,0,0,0,0,0,0,0,-0.0201,-0.0201,-0.0198,-0.0198,-0.019,-0.019,-0.0147,-0.0146,0,0,0,0,0,0,0,0,0,0,0,-0.0201,-0.0201,-0.0201,-0.0198,-0.019,-0.019,-0.0147,-0.016,0,0,0,0,0,0,0,0,0,0,-0.0172,-0.0182,-0.0201,-0.0201,-0.0198,-0.019,-0.019,-0.0161,-0.0159,-0.0143,0,-0.0145,0,-0.0146,-0.0143,-0.0143,0,0,0,-0.0193,-0.0183,-0.0181,-0.0201,-0.0198,-0.019,-0.0192,-0.016,-0.0158,-0.014,-0.0145,-0.0143,-0.0145,-0.0143,-0.0143,-0.0043,-0.0042,0,0,-0.0194,-0.0197,-0.0182,-0.018,-0.02,-0.0193,-0.0192,-0.0159,-0.0158,-0.0145,-0.0143,-0.0145,-0.0142,-0.0142,-0.0043,-0.0042,0,0,0,-0.0198,-0.0198,-0.0197,-0.0181,-0.0183,-0.0192,-0.0192,-0.016,-0.016,-0.0142,-0.0144,-0.0142,-0.0142,-0.0044,-0.0043,-0.0014,0,0,0,-0.0198,-0.0201,-0.0197,-0.0198,-0.0184,-0.0176,-0.0193,-0.0162,-0.0158,-0.0144,-0.0142,-0.0141,-0.0045,-0.0043,-0.0017,-0.0093,0,0,0,-0.02,-0.0201,-0.0201,-0.0199,-0.0197,-0.0177,-0.0175,-0.0161,-0.0159,-0.0143,-0.0141,-0.0045,-0.0044,-0.0019,-0.0093,-0.0155,0,0,0,-0.0202,-0.0173,-0.0202,-0.0164,-0.0198,-0.0144,-0.0175,-0.015,-0.0133,-0.0142,-0.0045,-0.0043,-0.002,-0.0094,-0.0154,-0.0178,0,0,0,-0.0156,-0.0168,-0.0141,-0.0166,-0.0112,-0.0145,-0.0076,-0.0086,-0.0098,-0.0055,-0.0053,-0.0016,-0.0093,-0.0155,-0.0072,0,0,0,0,-0.012,-0.0113,-0.0096,-0.008,-0.0055,-0.0064,-0.0041,-0.0035,-0.0017,-0.0082,0.0012,-0.004,-0.0079,-0.0086,-0.0034,-0.0035,-0.0035,-0.0035,-0.0035,-0.0086,-0.007,-0.0058,-0.0041,-0.0012,0.0011,0.0009,0.0016,0.0047,0.006,0.0009,0.0004,0.0008,0.0084,0.0084,0.0084,0.0084,0.0084,0.0084,-0.0096,-0.0131,-0.0098,-0.0091,-0.0072,-0.0031,0.0022,0.004,0.004,0.0072,0.0035,-0.0022,0.0088,0.0087,0.0087,0.0086,0.0086,0.0086,0.0086,-0.0165,-0.0189,-0.0182,-0.0199,-0.019,-0.0128,-0.0147,-0.0085,-0.0021,-0.0033,-0.0084,-0.0025,-0.0062,-0.0049,-0.0049,-0.005,-0.005,-0.0051,-0.0051,-0.0285,-0.0274,-0.0315,-0.0325,-0.0331,-0.033,-0.0274,-0.0252,-0.0182,-0.0129,-0.0068,-0.0044,-0.004,-0.0072,-0.006,-0.0058,-0.0057,-0.0056,-0.0056,-0.0409,-0.0401,-0.0455,-0.0473,-0.0481,-0.0465,-0.0426,-0.0356,-0.0358,-0.0327,-0.0175,-0.0167,-0.0217,-0.021,-0.025,-0.0291,-0.0291,-0.0291,0,-0.0502,-0.0503,-0.0555,-0.0576,-0.0582,-0.0529,-0.0493,-0.0449,-0.0368,-0.0351,-0.036,-0.0191,-0.0183,-0.0239,-0.0233,-0.0281,0,0,0,-0.0593,-0.0584,-0.0629,-0.062,-0.0601,-0.0518,-0.0472,-0.0446,-0.0374,-0.0369,-0.0301,-0.0299,-0.0179,-0.0084,-0.0144,-0.0139,-0.0196,0,0]}]]